SR1WXW Weather Reports


time (UTC)temp
C
wind
direction
speed
KPH
gust
KPH
rain 1hr
cm
rain 24hr
cm
rain mn
cm
humidity
%
barometer
mb
20260905234554 11 270 0.0 0.0 0.00 1.07 0.00 91 1010.5
20260905234054 11 270 0.0 0.0 0.00 1.07 0.00 91 1010.5
20260905233554 11 270 0.0 0.0 0.00 1.07 0.00 91 1010.4
20260905233054 11 270 0.0 0.0 0.00 1.07 0.00 91 1010.3
20260905232554 11 270 0.0 0.0 0.00 1.07 0.00 91 1010.2
20260905232054 11 202 0.0 0.0 0.00 1.07 0.00 92 1010.3
20260905231554 11 202 0.0 0.0 0.00 1.07 0.00 92 1010.2
20260905231054 11 202 0.0 0.0 0.00 1.07 0.00 92 1010.0
20260905230554 11 202 0.0 0.0 0.00 1.07 0.00 92 1010.0
20260905230054 11 247 0.0 0.0 0.00 1.07 0.00 92 1010.1
20260905225554 11 247 0.0 0.0 0.00 1.07 0.00 92 1010.1
20260905225054 11 225 4.8 8.0 0.00 1.07 0.00 92 1010.2
20260905224554 11 270 4.8 6.4 0.00 1.07 0.00 92 1010.0
20260905224054 11 270 0.0 6.4 0.00 1.07 0.00 92 1010.0
20260905223554 11 270 0.0 0.0 0.00 1.07 0.00 92 1010.2
20260905223054 11 292 0.0 0.0 0.00 1.07 0.00 92 1010.1
20260905222554 11 270 0.0 0.0 0.00 1.07 0.00 92 1010.0
20260905222054 11 225 1.6 4.8 0.00 1.07 0.00 92 1010.1
20260905221554 11 270 0.0 0.0 0.00 1.07 0.00 92 1010.0
20260905221054 11 270 3.2 6.4 0.00 1.07 0.00 92 1010.0
20260905220554 11 270 0.0 0.0 0.00 1.07 0.00 92 1010.0
20260905220054 11 270 0.0 0.0 0.00 1.07 0.00 92 1009.9
20260905215554 11 247 3.2 4.8 0.00 1.07 0.00 92 1009.9
20260905215054 11 270 1.6 6.4 0.00 1.07 0.00 92 1009.9
20260905214554 11 247 6.4 11.3 0.00 1.07 0.00 92 1009.8
20260905214054 11 270 6.4 9.7 0.00 1.07 0.00 92 1009.9
20260905213554 11 225 9.7 9.7 0.05 1.07 0.00 92 1009.7
20260905213054 11 270 9.7 9.7 0.05 1.07 0.00 92 1009.7
20260905212554 11 292 1.6 8.0 0.05 1.07 0.00 92 1009.7
20260905212054 11 270 1.6 8.0 0.05 1.07 0.00 92 1009.6
20260905211554 11 270 3.2 8.0 0.05 1.07 0.00 92 1009.6
20260905211054 11 247 3.2 11.3 0.05 1.07 0.00 92 1009.5
20260905210554 11 270 3.2 12.9 0.05 1.07 0.00 91 1009.3
20260905210054 11 180 3.2 4.8 0.05 1.07 0.00 91 1009.5
20260905205554 11 270 1.6 4.8 0.05 1.07 0.00 91 1009.4
20260905205054 11 247 3.2 6.4 0.05 1.07 0.00 91 1009.5
20260905204554 11 247 3.2 8.0 0.05 1.07 0.00 91 1009.5
20260905204054 11 270 1.6 6.4 0.05 1.07 0.00 91 1009.4
20260905203554 11 225 1.6 6.4 0.00 1.02 0.00 91 1009.3
20260905203054 11 270 0.0 4.8 0.00 1.02 0.00 91 1009.3
20260905202554 11 247 1.6 6.4 0.00 1.02 0.00 91 1009.2
20260905202054 11 270 0.0 6.4 0.00 1.02 0.00 91 1009.3
20260905201554 12 247 6.4 6.4 0.00 1.02 0.00 91 1009.1
20260905201054 12 225 3.2 6.4 0.00 1.02 0.00 91 1009.2
20260905200554 12 247 3.2 4.8 0.00 1.02 0.00 91 1009.1
20260905200054 12 270 3.2 4.8 0.00 1.02 0.00 91 1009.1
20260905195554 12 225 3.2 9.7 0.00 1.22 0.00 91 1009.1
20260905195054 12 270 3.2 9.7 0.00 1.22 0.00 91 1008.9
20260905194554 12 225 1.6 6.4 0.00 1.22 0.00 91 1009.0
20260905194054 12 247 3.2 6.4 0.00 1.22 0.00 91 1009.0
20260905193554 12 225 1.6 6.4 0.00 1.22 0.00 91 1009.0
20260905193054 12 247 3.2 6.4 0.00 1.22 0.00 91 1009.0
20260905192554 12 247 6.4 6.4 0.00 1.22 0.00 91 1008.8
20260905192054 12 247 4.8 6.4 0.00 1.22 0.00 91 1008.7
20260905191554 12 270 3.2 11.3 0.00 1.22 0.00 91 1008.7
20260905191054 12 202 4.8 12.9 0.00 1.22 0.00 91 1008.8
20260905190554 12 247 0.0 4.8 0.00 1.22 0.00 91 1008.7
20260905190054 12 270 0.0 4.8 0.00 1.22 0.00 91 1008.6
20260905185554 12 270 1.6 4.8 0.00 1.80 0.00 91 1008.6
20260905185054 12 247 0.0 6.4 0.00 1.80 0.00 91 1008.4
20260905184554 12 247 0.0 4.8 0.00 1.80 0.00 91 1008.4
20260905184055 12 270 0.0 6.4 0.00 1.80 0.00 91 1008.5
20260905183555 12 247 1.6 6.4 0.00 1.80 0.00 91 1008.5
20260905183054 12 247 3.2 8.0 0.00 1.80 0.00 90 1008.4
20260905182555 12 247 3.2 3.2 0.00 1.80 0.00 90 1008.3
20260905182055 12 225 3.2 8.0 0.00 1.80 0.00 90 1008.4
20260905181555 12 225 1.6 127.1 0.00 1.80 0.00 90 1008.6
20260905181055 12 247 1.6 9.7 0.00 1.80 0.00 90 1008.5
20260905180555 12 270 0.0 4.8 0.00 1.80 0.00 90 1008.4
20260905180055 12 270 9.7 90.1 0.00 1.80 0.00 90 1008.4
20260905175555 12 270 3.2 140.0 0.00 1.80 0.00 90 1008.3
20260905175055 12 225 1.6 4.8 0.00 1.80 0.00 90 1008.2
20260905174555 12 270 4.8 8.0 0.00 1.80 0.00 90 1008.3
20260905174055 12 225 1.6 6.4 0.00 1.80 0.00 90 1008.2
20260905173555 12 225 3.2 6.4 0.00 1.80 0.00 90 1008.3
20260905173055 12 270 0.0 6.4 0.00 1.80 0.00 90 1008.2
20260905172555 12 247 3.2 9.7 0.00 1.80 0.00 89 1008.2
20260905172055 12 247 1.6 6.4 0.00 1.80 0.00 89 1008.2
20260905171555 12 270 1.6 4.8 0.00 1.80 0.00 89 1008.1
20260905171055 12 247 3.2 4.8 0.00 1.80 0.00 89 1008.2
20260905170555 12 225 1.6 4.8 0.00 1.80 0.00 89 1008.0
20260905170055 12 270 4.8 4.8 0.00 1.80 0.00 89 1007.9
20260905165555 12 270 3.2 6.4 0.00 1.80 0.00 89 1008.0
20260905165055 12 247 1.6 8.0 0.00 1.80 0.00 89 1007.9
20260905164555 12 225 1.6 4.8 0.00 1.80 0.00 89 1007.8
20260905164055 12 202 8.0 8.0 0.00 1.80 0.00 89 1007.7
20260905163555 12 270 0.0 3.2 0.00 1.80 0.00 89 1007.7
20260905163055 12 247 1.6 6.4 0.00 1.80 0.00 89 1007.6
20260905162555 12 270 6.4 6.4 0.00 1.80 0.00 89 1007.4
20260905162055 12 225 4.8 8.0 0.00 1.80 0.00 89 1007.5
20260905161555 12 202 4.8 4.8 0.00 1.80 0.00 88 1007.6
20260905161055 12 247 0.0 3.2 0.00 1.80 0.00 88 1007.5
20260905160555 12 225 1.6 3.2 0.00 1.80 0.00 88 1007.4
20260905160055 12 225 1.6 3.2 0.05 1.80 0.00 88 1007.5
20260905155555 13 202 3.2 4.8 0.25 1.80 0.00 88 1007.3
20260905155055 13 202 1.6 4.8 0.30 1.80 0.00 88 1007.3
20260905154555 13 225 1.6 4.8 0.30 1.80 0.00 88 1007.2
20260905154055 13 247 4.8 4.8 0.30 1.80 0.00 88 1007.2
20260905153555 12 225 1.6 6.4 0.41 1.80 0.00 87 1007.2
20260905153055 12 202 1.6 3.2 0.56 1.80 0.00 87 1007.1
20260905152555 12 247 0.0 3.2 0.66 1.80 0.00 86 1007.1
20260905152055 12 202 0.0 1.6 0.71 1.80 0.00 86 1007.3
20260905151555 12 202 0.0 3.2 0.71 1.80 0.00 86 1007.3
20260905151055 12 247 0.0 1.6 0.71 1.80 0.00 85 1007.5
20260905150555 12 225 0.0 3.2 0.71 1.80 0.00 85 1007.6
20260905150055 12 247 1.6 6.4 0.56 1.65 0.00 85 1007.8
20260905145555 12 225 3.2 6.4 0.46 1.55 0.00 85 1007.7
20260905145055 13 270 1.6 3.2 0.41 1.50 0.00 84 1007.5
20260905144555 13 292 1.6 3.2 0.41 1.50 0.00 83 1006.8
20260905144055 13 270 3.2 4.8 0.36 1.45 0.00 82 1006.6
20260905143555 14 270 1.6 9.7 0.20 1.27 0.00 80 1006.9
20260905143055 15 270 4.8 14.5 0.05 1.17 0.00 80 1006.9
20260905142555 16 292 9.7 14.5 0.00 1.07 0.00 82 1007.0
20260905142055 16 247 0.0 1.6 0.05 1.07 0.00 81 1006.3
20260905141555 16 270 0.0 3.2 0.30 1.07 0.00 81 1006.4
20260905141055 16 270 1.6 3.2 0.30 1.07 0.00 81 1006.2
20260905140555 16 270 0.0 3.2 0.30 1.07 0.00 81 1006.2
20260905140055 16 270 0.0 4.8 0.30 1.07 0.00 80 1006.5
20260905135555 16 270 0.0 1.6 0.30 1.85 0.00 80 1006.5
20260905135055 16 202 1.6 3.2 0.30 1.85 0.00 79 1006.5
20260905134555 16 270 0.0 3.2 0.30 1.85 0.00 78 1006.5
20260905134055 16 247 0.0 1.6 0.30 1.85 0.00 77 1006.7
20260905133555 16 225 0.0 3.2 0.30 1.85 0.00 76 1006.7
20260905133055 17 270 0.0 9.7 0.30 1.85 0.00 74 1003.5
20260905132555 17 270 3.2 11.3 0.30 1.85 0.00 73 1003.5
20260905132055 18 270 0.0 9.7 0.10 1.65 0.00 71 1003.6
20260905131555 18 247 3.2 4.8 0.00 1.55 0.00 71 1003.4
20260905131055 18 247 3.2 8.0 0.00 1.55 0.00 71 1002.9
20260905130555 18 135 4.8 6.4 0.00 1.55 0.00 72 1002.8
20260905130055 18 292 6.4 6.4 0.00 1.55 0.00 72 1002.7
20260905125555 18 270 3.2 4.8 0.00 1.55 0.00 71 1002.7
20260905125055 18 270 3.2 6.4 0.00 1.55 0.00 70 1002.8
20260905124555 18 270 4.8 11.3 0.00 1.55 0.00 70 1002.9
20260905124055 18 247 9.7 9.7 0.00 1.55 0.00 69 1003.0
20260905123555 19 270 9.7 9.7 0.00 1.55 0.00 70 1002.9
20260905123055 19 270 3.2 14.5 0.00 1.55 0.00 69 1002.8
20260905122555 19 337 4.8 14.5 0.00 1.55 0.00 72 1002.9
20260905122055 18 247 8.0 17.7 0.00 1.55 0.00 72 1002.8
20260905121555 18 247 3.2 12.9 0.00 1.55 0.00 71 1002.9
20260905121055 18 292 11.3 14.5 0.00 1.55 0.00 71 1002.9
20260905120555 18 270 3.2 12.9 0.00 1.55 0.00 71 1004.8
20260905120055 18 225 8.0 9.7 0.00 1.55 0.00 71 1006.3
20260905115555 18 270 17.7 17.7 0.00 2.01 0.00 71 1006.3
20260905115055 18 270 4.8 8.0 0.00 2.01 0.00 72 1006.3
20260905114555 19 270 3.2 11.3 0.00 2.01 0.00 71 1006.4
20260905114055 19 225 8.0 12.9 0.00 2.01 0.00 72 1006.3
20260905113555 19 270 12.9 12.9 0.00 2.01 0.00 72 1006.0
20260905113056 19 247 3.2 11.3 0.00 2.01 0.00 73 1006.1
20260905112555 19 270 3.2 9.7 0.00 2.01 0.00 74 1006.1
20260905112055 18 202 4.8 8.0 0.00 2.01 0.00 75 1006.1
20260905111555 18 247 6.4 16.1 0.00 2.01 0.00 74 1006.1
20260905111056 18 247 3.2 12.9 0.00 2.01 0.00 75 1006.1
20260905110556 18 202 0.0 0.0 0.00 2.01 0.00 77 1006.0
20260905110056 18 270 4.8 8.0 0.00 2.01 0.00 76 1006.1
20260905105556 18 202 0.0 0.0 0.00 2.74 0.00 77 1006.1
20260905105056 18 202 0.0 0.0 0.00 2.74 0.00 77 1006.2
20260905104556 17 270 4.8 6.4 0.00 2.74 0.00 76 1006.3
20260905104056 17 292 1.6 8.0 0.00 2.74 0.00 77 1006.2
20260905103556 17 270 1.6 8.0 0.00 2.74 0.00 77 1006.1
20260905103056 17 270 3.2 9.7 0.00 2.74 0.00 77 1006.2
20260905102556 17 270 0.0 0.0 0.00 2.74 0.00 77 1006.0
20260905102056 17 270 0.0 0.0 0.00 2.74 0.00 77 1006.1
20260905101556 17 270 0.0 0.0 0.00 2.74 0.00 76 1006.1
20260905101056 17 157 3.2 8.0 0.00 2.74 0.00 75 1006.2
20260905100556 17 225 1.6 6.4 0.00 2.74 0.00 75 1006.0
20260905100056 17 270 6.4 11.3 0.00 2.74 0.00 76 1006.0
20260905095556 17 22 0.0 0.0 0.00 3.25 0.00 76 1006.0
20260905095056 17 22 0.0 0.0 0.00 3.25 0.00 77 1005.8
20260905094556 17 22 0.0 0.0 0.00 3.25 0.00 78 1006.1
20260905094056 17 22 0.0 0.0 0.00 3.25 0.00 78 1006.0
20260905093556 17 22 0.0 0.0 0.00 3.25 0.00 78 1005.8
20260905093056 17 22 0.0 0.0 0.00 3.25 0.00 80 1005.9
20260905092556 17 22 0.0 0.0 0.00 3.25 0.00 80 1006.0
20260905092056 16 22 0.0 0.0 0.00 3.25 0.00 79 1006.0
20260905091556 16 22 0.0 0.0 0.00 3.25 0.00 80 1005.8
20260905091056 16 22 0.0 0.0 0.00 3.25 0.00 80 1005.9
20260905090556 16 22 0.0 0.0 0.00 3.25 0.00 80 1006.0
20260905090056 16 22 0.0 0.0 0.00 3.25 0.00 79 1005.9
20260905085556 16 225 0.0 0.0 0.00 3.86 0.00 79 1005.8
20260905085056 16 225 0.0 0.0 0.00 3.86 0.00 79 1005.7
20260905084556 16 225 0.0 0.0 0.00 3.86 0.00 80 1005.6
20260905084056 17 225 0.0 0.0 0.00 3.86 0.00 80 1005.6
20260905083556 17 225 0.0 0.0 0.00 3.86 0.00 81 1005.6
20260905083056 16 225 0.0 0.0 0.00 3.86 0.00 81 1005.5
20260905082556 16 225 0.0 0.0 0.00 3.86 0.00 81 1005.4
20260905082056 16 225 0.0 0.0 0.00 3.86 0.00 81 1005.5
20260905081556 16 225 0.0 0.0 0.00 3.86 0.00 80 1005.5
20260905081056 16 225 0.0 0.0 0.00 3.86 0.00 80 1005.4
20260905080556 17 225 0.0 0.0 0.00 3.86 0.00 81 1005.3
20260905080056 17 225 0.0 0.0 0.00 3.86 0.00 81 1005.2
20260905075556 17 225 0.0 0.0 0.00 3.86 0.00 82 1005.4
20260905075056 17 225 0.0 0.0 0.00 3.86 0.00 84 1005.2
20260905074556 16 225 0.0 0.0 0.00 3.86 0.00 84 1005.2
20260905074056 16 225 0.0 0.0 0.00 3.86 0.00 85 1005.2
20260905073556 16 225 0.0 0.0 0.00 3.86 0.00 86 1005.2
20260905073056 16 225 0.0 0.0 0.00 3.86 0.00 87 1005.1
20260905072556 15 225 0.0 0.0 0.00 3.86 0.00 87 1005.0
20260905072056 15 225 0.0 0.0 0.00 3.86 0.00 87 1005.0
20260905071556 15 225 0.0 0.0 0.00 3.86 0.00 88 1005.0
20260905071056 15 225 0.0 0.0 0.00 3.86 0.00 88 1004.9
20260905070556 15 225 0.0 0.0 0.00 3.86 0.00 89 1005.0
20260905070056 14 225 0.0 0.0 0.00 3.86 0.00 90 1005.0
20260905065556 14 225 0.0 0.0 0.00 3.86 0.00 90 1004.8
20260905065056 14 225 0.0 0.0 0.00 3.86 0.00 90 1004.8
20260905064556 14 225 0.0 0.0 0.00 3.86 0.00 90 1004.9
20260905064056 13 225 0.0 0.0 0.00 3.86 0.00 90 1004.7
20260905063556 13 225 0.0 0.0 0.00 3.86 0.00 90 1004.8
20260905063056 13 225 0.0 0.0 0.00 3.86 0.00 91 1004.7
20260905062556 13 225 0.0 0.0 0.00 3.86 0.00 91 1004.7
20260905062056 13 225 0.0 0.0 0.00 3.86 0.00 91 1004.6
20260905061556 13 225 0.0 0.0 0.00 3.86 0.00 91 1004.5
20260905061056 13 225 0.0 0.0 0.00 3.86 0.00 91 1004.5
20260905060556 13 225 0.0 0.0 0.00 3.86 0.00 91 1004.4
20260905060056 13 225 0.0 0.0 0.00 3.86 0.00 91 1004.4
20260905055556 12 225 0.0 0.0 0.00 3.86 0.00 91 1004.2
20260905055056 12 225 0.0 0.0 0.00 3.86 0.00 91 1004.1
20260905054556 12 225 0.0 0.0 0.00 3.86 0.00 91 1004.1
20260905054056 12 225 0.0 0.0 0.00 3.86 0.00 91 1004.2
20260905053556 12 225 0.0 0.0 0.00 3.86 0.00 91 1004.1
20260905053056 12 225 0.0 0.0 0.00 3.86 0.00 91 1004.0
20260905052556 12 225 0.0 0.0 0.00 3.86 0.00 91 1003.8
20260905052056 12 225 0.0 0.0 0.00 3.86 0.00 91 1003.8
20260905051556 12 225 0.0 0.0 0.00 3.86 0.00 91 1003.7
20260905051056 13 225 0.0 0.0 0.00 3.86 0.00 91 1003.8
20260905050556 13 225 0.0 0.0 0.00 3.86 0.00 92 1003.6
20260905050056 13 225 0.0 0.0 0.00 3.86 0.00 92 1003.5
20260905045556 13 225 0.0 0.0 0.00 3.91 0.00 92 1003.4
20260905045056 12 225 0.0 0.0 0.00 3.91 0.00 92 1003.3
20260905044556 12 225 0.0 0.0 0.00 3.91 0.00 92 1003.3
20260905044056 12 225 0.0 0.0 0.00 3.91 0.00 92 1003.1
20260905043556 12 225 0.0 0.0 0.00 3.91 0.00 92 1003.2
20260905043056 12 225 0.0 0.0 0.00 3.91 0.00 92 1003.3
20260905042556 12 225 0.0 0.0 0.00 3.91 0.00 92 1003.1
20260905042056 12 225 0.0 0.0 0.00 3.91 0.00 93 1003.0
20260905041557 12 225 0.0 0.0 0.00 3.91 0.00 93 1002.9
20260905041056 12 225 0.0 0.0 0.00 3.91 0.00 93 1002.8
20260905040556 12 225 0.0 0.0 0.00 3.91 0.00 93 1002.9
20260905040057 12 225 0.0 0.0 0.00 4.19 0.00 93 1002.8
20260905035557 12 225 0.0 0.0 0.00 4.19 0.00 93 1002.7
20260905035057 12 225 0.0 0.0 0.00 4.19 0.00 93 1002.6
20260905034557 12 225 0.0 0.0 0.00 4.19 0.00 93 1002.6
20260905034057 12 225 0.0 0.0 0.00 4.19 0.00 93 1002.7
20260905033557 12 225 0.0 0.0 0.00 4.19 0.00 93 1002.7
20260905033057 12 225 0.0 0.0 0.00 4.19 0.00 93 1002.6
20260905032557 12 225 0.0 0.0 0.00 4.19 0.00 93 1002.5
20260905032057 12 225 0.0 0.0 0.00 4.19 0.00 93 1002.4
20260905031557 12 225 0.0 0.0 0.00 4.19 0.00 93 1002.3
20260905031057 12 225 0.0 0.0 0.00 4.19 0.00 93 1002.2
20260905030557 12 225 0.0 0.0 0.00 4.19 0.00 93 1002.2
20260905030057 12 225 0.0 0.0 0.00 4.19 0.00 93 1002.3
20260905025557 12 225 0.0 0.0 0.00 4.19 0.00 92 1002.3
20260905025057 12 225 0.0 0.0 0.00 4.19 0.00 92 1002.2
20260905024557 12 225 0.0 0.0 0.00 4.19 0.00 92 1002.3
20260905024057 12 225 0.0 0.0 0.00 4.19 0.00 92 1002.2
20260905023557 12 225 0.0 0.0 0.00 4.19 0.00 92 1002.2
20260905023057 12 225 0.0 0.0 0.00 4.19 0.00 92 1002.1
20260905022557 12 225 0.0 0.0 0.00 4.19 0.00 92 1002.1
20260905022057 12 225 0.0 0.0 0.00 4.19 0.00 92 1002.0
20260905021557 12 225 0.0 0.0 0.00 4.19 0.00 92 1002.0
20260905021057 12 225 0.0 0.0 0.00 4.19 0.00 92 1002.0
20260905020557 12 225 0.0 0.0 0.00 4.19 0.00 92 1002.0
20260905020057 12 225 0.0 0.0 0.00 4.19 0.00 92 1002.0
20260905015557 12 225 0.0 0.0 0.00 4.19 0.00 92 1002.1
20260905015057 12 225 0.0 0.0 0.00 4.19 0.00 92 1001.9
20260905014557 12 225 0.0 0.0 0.00 4.19 0.00 93 1002.1
20260905014057 12 225 0.0 0.0 0.00 4.19 0.00 93 1002.0
20260905013557 12 225 0.0 0.0 0.00 4.19 0.00 93 1002.1
20260905013057 12 225 0.0 0.0 0.00 4.19 0.00 93 1002.0
20260905012557 12 225 0.0 0.0 0.00 4.19 0.00 93 1002.0
20260905012057 12 225 0.0 0.0 0.00 4.19 0.00 93 1002.0
20260905011557 12 225 0.0 0.0 0.00 4.19 0.00 93 1001.8
20260905011057 12 225 0.0 0.0 0.00 4.19 0.00 93 1001.9
20260905010557 12 225 0.0 0.0 0.00 4.19 0.00 93 1001.7
20260905010057 12 225 0.0 0.0 0.00 4.19 0.00 93 1001.7
20260905005557 12 225 0.0 0.0 0.00 4.19 0.00 93 1001.7
20260905005057 12 225 0.0 0.0 0.00 4.19 0.00 93 1001.6
20260905004557 12 225 0.0 0.0 0.00 4.19 0.00 93 1001.6
20260905004057 12 225 0.0 0.0 0.00 4.19 0.00 93 1001.4
20260905003557 12 225 0.0 0.0 0.00 4.19 0.00 93 1001.5
20260905003057 12 225 0.0 0.0 0.00 4.19 0.00 93 1001.3
20260905002557 12 225 0.0 0.0 0.00 4.19 0.00 93 1001.3
20260905002057 12 225 0.0 0.0 0.00 4.19 0.00 93 1001.0
20260905001557 12 225 0.0 0.0 0.00 4.19 0.00 93 1001.1
20260905001057 12 225 0.0 0.0 0.00 4.19 0.00 93 1001.1
20260905000557 13 225 0.0 0.0 0.00 4.19 0.00 93 1001.0
20260905000057 13 225 0.0 0.0 0.00 4.19 0.00 93 1000.9
20260904235557 13 225 0.0 0.0 0.00 4.19 0.00 93 1000.9
20260904235057 13 225 0.0 0.0 0.00 4.19 0.00 93 1000.9